QFA342 YMML-YSSY

Flight info

Callsign QFA342
Flight time N/A
Altitude 37000
Route DOSEL2/34 DOSEL Y59 RIVET RIVET4
Aircraft A20N/M-SDE2E3FGHIRWXY/LB1

Departure

Time N/A
Airport Melbourne Airport (YMML)

Arrival

Time 2026-04-24 10:57
Airport Sydney Kingsford Smith International Airport (YSSY)
Time Latitude Longitude Altitude Speed Heading
2026-04-24 10:05 -36.77089 146.08911 37475 ft 452 kts 66°
2026-04-24 10:05 -36.75615 146.12360 37481 ft 451 kts 57°
2026-04-24 10:05 -36.72016 146.18790 37468 ft 452 kts 53°
2026-04-24 10:06 -36.66278 146.28141 37469 ft 452 kts 52°
2026-04-24 10:07 -36.62483 146.34336 37468 ft 452 kts 53°
2026-04-24 10:07 -36.58682 146.40594 37469 ft 452 kts 53°
2026-04-24 10:08 -36.54905 146.46824 37467 ft 453 kts 53°
2026-04-24 10:08 -36.51102 146.53088 37470 ft 453 kts 53°
2026-04-24 10:09 -36.47289 146.59351 37471 ft 453 kts 53°
2026-04-24 10:09 -36.43477 146.65599 37472 ft 454 kts 53°
2026-04-24 10:10 -36.39682 146.71810 37470 ft 454 kts 53°
2026-04-24 10:10 -36.35857 146.78057 37468 ft 454 kts 53°
2026-04-24 10:11 -36.32024 146.84305 37476 ft 456 kts 53°
2026-04-24 10:11 -36.28100 146.90686 37469 ft 470 kts 53°
2026-04-24 10:12 -36.24131 146.97116 37475 ft 472 kts 53°
2026-04-24 10:12 -36.20782 147.02536 37474 ft 472 kts 54°
2026-04-24 10:13 -36.16161 147.10063 37472 ft 472 kts 54°
2026-04-24 10:13 -36.12898 147.15477 37477 ft 473 kts 55°
2026-04-24 10:14 -36.08974 147.22004 37480 ft 472 kts 55°
2026-04-24 10:14 -36.05015 147.28568 37481 ft 473 kts 55°
2026-04-24 10:15 -36.01075 147.35079 37486 ft 473 kts 55°
2026-04-24 10:15 -35.97134 147.41572 37480 ft 473 kts 55°
2026-04-24 10:16 -35.93183 147.48071 37479 ft 473 kts 55°
2026-04-24 10:16 -35.89255 147.54519 37480 ft 473 kts 55°
2026-04-24 10:17 -35.85297 147.61006 37480 ft 473 kts 55°
2026-04-24 10:17 -35.81333 147.67490 37490 ft 473 kts 55°
2026-04-24 10:18 -35.77364 147.73971 37490 ft 473 kts 55°
2026-04-24 10:18 -35.73411 147.80411 37493 ft 473 kts 55°
2026-04-24 10:19 -35.69439 147.86871 37495 ft 473 kts 55°
2026-04-24 10:19 -35.65457 147.93338 37494 ft 473 kts 55°
2026-04-24 10:20 -35.61478 147.99786 37499 ft 473 kts 55°
2026-04-24 10:20 -35.57485 148.06244 37502 ft 474 kts 55°
2026-04-24 10:21 -35.53498 148.12681 37503 ft 474 kts 55°
2026-04-24 10:21 -35.49499 148.19125 37513 ft 474 kts 55°
2026-04-24 10:22 -35.45526 148.25517 37510 ft 474 kts 56°
2026-04-24 10:22 -35.41520 148.31948 37511 ft 474 kts 56°
2026-04-24 10:23 -35.37504 148.38383 37519 ft 475 kts 56°
2026-04-24 10:23 -35.33489 148.44805 37518 ft 475 kts 56°
2026-04-24 10:24 -35.29460 148.51237 37515 ft 475 kts 56°
2026-04-24 10:24 -35.25488 148.57565 37516 ft 466 kts 56°
2026-04-24 10:25 -35.21545 148.63846 37523 ft 464 kts 56°
2026-04-24 10:25 -35.17605 148.70112 37521 ft 464 kts 56°
2026-04-24 10:26 -35.13662 148.76366 37509 ft 464 kts 56°
2026-04-24 10:26 -35.09736 148.82579 37515 ft 464 kts 56°
2026-04-24 10:27 -35.05778 148.88831 37509 ft 465 kts 56°
2026-04-24 10:27 -35.01818 148.95075 37509 ft 465 kts 56°
2026-04-24 10:28 -34.97857 149.01310 37508 ft 465 kts 56°
2026-04-24 10:28 -34.95876 149.04422 37288 ft 464 kts 56°
2026-04-24 10:28 -34.93895 149.07534 37031 ft 465 kts 56°
2026-04-24 10:28 -34.91912 149.10642 36785 ft 465 kts 56°
2026-04-24 10:29 -34.89923 149.13758 36530 ft 466 kts 56°
2026-04-24 10:29 -34.87942 149.16859 36283 ft 473 kts 56°
2026-04-24 10:29 -34.85903 149.20046 36031 ft 477 kts 56°
2026-04-24 10:29 -34.83856 149.23238 35793 ft 478 kts 56°
2026-04-24 10:30 -34.81810 149.26421 35552 ft 479 kts 56°
2026-04-24 10:30 -34.79749 149.29626 35322 ft 479 kts 56°
2026-04-24 10:30 -34.77702 149.32809 35102 ft 478 kts 56°
2026-04-24 10:30 -34.75646 149.36006 34877 ft 478 kts 56°
2026-04-24 10:31 -34.73763 149.39314 34634 ft 473 kts 65°
2026-04-24 10:31 -34.72195 149.42825 34065 ft 472 kts 65°
2026-04-24 10:31 -34.70620 149.46293 33492 ft 464 kts 65°
2026-04-24 10:31 -34.69083 149.49723 32723 ft 460 kts 65°
2026-04-24 10:32 -34.67566 149.53150 31921 ft 458 kts 65°
2026-04-24 10:32 -34.66087 149.56517 31154 ft 455 kts 65°
2026-04-24 10:32 -34.64605 149.59899 30390 ft 452 kts 65°
2026-04-24 10:32 -34.63132 149.63261 29556 ft 448 kts 65°
2026-04-24 10:33 -34.61681 149.66569 28864 ft 440 kts 65°
2026-04-24 10:33 -34.60270 149.69783 28409 ft 420 kts 64°
2026-04-24 10:33 -34.58911 149.72884 28130 ft 411 kts 65°
2026-04-24 10:33 -34.57589 149.75916 27825 ft 401 kts 65°
2026-04-24 10:34 -34.56295 149.78883 27363 ft 395 kts 64°
2026-04-24 10:34 -34.55020 149.81807 26865 ft 390 kts 64°
2026-04-24 10:34 -34.53758 149.84693 26371 ft 385 kts 64°
2026-04-24 10:34 -34.52501 149.87561 25890 ft 381 kts 64°
2026-04-24 10:35 -34.51276 149.90347 25421 ft 378 kts 64°
2026-04-24 10:35 -34.50048 149.93150 24954 ft 374 kts 64°
2026-04-24 10:35 -34.48847 149.95934 24476 ft 371 kts 64°
2026-04-24 10:35 -34.47649 149.98702 23975 ft 369 kts 64°
2026-04-24 10:36 -34.46456 150.01434 23452 ft 365 kts 64°
2026-04-24 10:36 -34.45267 150.04139 22975 ft 361 kts 63°
2026-04-24 10:36 -34.44091 150.06804 22502 ft 357 kts 63°
2026-04-24 10:36 -34.42922 150.09445 22042 ft 353 kts 63°
2026-04-24 10:37 -34.41770 150.12045 21582 ft 349 kts 63°
2026-04-24 10:37 -34.40627 150.14622 21128 ft 345 kts 63°
2026-04-24 10:37 -34.39495 150.17170 20684 ft 343 kts 63°
2026-04-24 10:37 -34.38367 150.19706 20227 ft 341 kts 63°
2026-04-24 10:38 -34.37247 150.22222 19767 ft 339 kts 63°
2026-04-24 10:38 -34.36128 150.24734 19313 ft 336 kts 63°
2026-04-24 10:38 -34.35021 150.27216 18874 ft 334 kts 63°
2026-04-24 10:38 -34.33918 150.29688 18377 ft 331 kts 63°
2026-04-24 10:39 -34.32826 150.32131 17919 ft 328 kts 63°
2026-04-24 10:39 -34.31744 150.34554 17488 ft 326 kts 64°
2026-04-24 10:39 -34.30680 150.36932 17046 ft 323 kts 64°
2026-04-24 10:39 -34.29610 150.39323 16568 ft 325 kts 64°
2026-04-24 10:40 -34.28523 150.41750 15801 ft 332 kts 63°
2026-04-24 10:40 -34.27421 150.44205 15223 ft 331 kts 63°
2026-04-24 10:40 -34.26333 150.46629 14749 ft 326 kts 64°
2026-04-24 10:40 -34.25258 150.49028 14307 ft 322 kts 64°
2026-04-24 10:41 -34.24197 150.51398 13828 ft 318 kts 64°
2026-04-24 10:41 -34.23173 150.53685 13408 ft 313 kts 64°
2026-04-24 10:41 -34.22124 150.56027 12976 ft 308 kts 64°
2026-04-24 10:41 -34.21123 150.58263 12559 ft 304 kts 64°
2026-04-24 10:42 -34.20126 150.60490 12142 ft 300 kts 64°
2026-04-24 10:42 -34.19140 150.62691 11734 ft 296 kts 64°
2026-04-24 10:42 -34.18164 150.64867 11332 ft 293 kts 64°
2026-04-24 10:42 -34.17197 150.67022 10930 ft 290 kts 64°
2026-04-24 10:43 -34.16235 150.69164 10529 ft 288 kts 64°
2026-04-24 10:43 -34.15282 150.71283 10105 ft 286 kts 64°
2026-04-24 10:43 -34.14350 150.73355 9897 ft 273 kts 63°
2026-04-24 10:43 -34.13457 150.75342 9478 ft 269 kts 63°
2026-04-24 10:44 -34.12561 150.77340 8836 ft 273 kts 63°
2026-04-24 10:44 -34.11654 150.79355 8281 ft 273 kts 63°
2026-04-24 10:44 -34.10748 150.81362 7773 ft 271 kts 63°
2026-04-24 10:44 -34.09848 150.83357 7286 ft 269 kts 62°
2026-04-24 10:45 -34.08810 150.85184 6788 ft 269 kts 45°
2026-04-24 10:45 -34.07224 150.86360 6285 ft 269 kts 22°
2026-04-24 10:45 -34.05415 150.86929 6026 ft 269 kts 13°
2026-04-24 10:45 -34.03575 150.87345 5990 ft 270 kts 12°
2026-04-24 10:46 -34.01730 150.87743 5989 ft 266 kts 12°
2026-04-24 10:46 -33.99946 150.88124 5987 ft 254 kts 12°
2026-04-24 10:46 -33.98222 150.88489 5991 ft 250 kts 12°
2026-04-24 10:46 -33.96505 150.88852 5991 ft 250 kts 12°
2026-04-24 10:47 -33.94794 150.89213 5990 ft 249 kts 12°
2026-04-24 10:47 -33.93089 150.89570 5990 ft 248 kts 12°
2026-04-24 10:47 -33.91388 150.89928 5990 ft 248 kts 12°
2026-04-24 10:47 -33.89683 150.90286 5988 ft 248 kts 12°
2026-04-24 10:48 -33.87980 150.90642 5987 ft 248 kts 12°
2026-04-24 10:48 -33.86296 150.90993 5991 ft 248 kts 12°
2026-04-24 10:48 -33.84590 150.91349 5988 ft 249 kts 12°
2026-04-24 10:48 -33.82883 150.91705 5996 ft 249 kts 12°
2026-04-24 10:49 -33.81181 150.92059 5936 ft 248 kts 12°
2026-04-24 10:49 -33.79487 150.92410 5550 ft 246 kts 12°
2026-04-24 10:49 -33.77798 150.92761 5153 ft 245 kts 12°
2026-04-24 10:49 -33.76230 150.93428 4832 ft 236 kts 36°
2026-04-24 10:50 -33.75155 150.94831 4630 ft 223 kts 60°
2026-04-24 10:50 -33.74485 150.96435 4345 ft 214 kts 68°
2026-04-24 10:50 -33.73945 150.98103 3890 ft 215 kts 71°
2026-04-24 10:50 -33.73437 150.99792 3442 ft 214 kts 72°
2026-04-24 10:51 -33.72931 151.01469 3091 ft 214 kts 72°
2026-04-24 10:51 -33.72482 151.03173 2998 ft 214 kts 83°
2026-04-24 10:51 -33.72693 151.04909 2997 ft 212 kts 115°
2026-04-24 10:51 -33.73314 151.06500 2993 ft 209 kts 107°
2026-04-24 10:52 -33.73688 151.08142 2997 ft 200 kts 105°
2026-04-24 10:52 -33.74031 151.09751 2989 ft 198 kts 105°
2026-04-24 10:52 -33.74478 151.11310 3008 ft 197 kts 118°
2026-04-24 10:52 -33.75409 151.12495 2997 ft 199 kts 148°
2026-04-24 10:53 -33.76711 151.13083 3001 ft 201 kts 164°
2026-04-24 10:53 -33.78083 151.13410 2994 ft 200 kts 167°
2026-04-24 10:53 -33.79413 151.13728 2811 ft 191 kts 166°
2026-04-24 10:53 -33.80699 151.14056 2543 ft 187 kts 166°
2026-04-24 10:54 -33.81958 151.14380 2281 ft 183 kts 166°
2026-04-24 10:54 -33.82778 151.14589 2109 ft 180 kts 166°
2026-04-24 10:54 -33.83987 151.14897 1880 ft 174 kts 166°
2026-04-24 10:54 -33.85524 151.15288 1572 ft 167 kts 166°
2026-04-24 10:55 -33.86287 151.15482 1420 ft 164 kts 166°
2026-04-24 10:55 -33.87738 151.15844 1127 ft 158 kts 167°
2026-04-24 10:55 -33.88802 151.16093 971 ft 152 kts 166°
2026-04-24 10:55 -33.89482 151.16275 856 ft 145 kts 167°
2026-04-24 10:56 -33.90456 151.16529 590 ft 141 kts 169°
2026-04-24 10:56 -33.91395 151.16772 381 ft 134 kts 169°
2026-04-24 10:56 -33.92273 151.16997 214 ft 129 kts 169°
2026-04-24 10:56 -33.93126 151.17217 69 ft 121 kts 170°
2026-04-24 10:57 -33.93904 151.17414 22 ft 107 kts 168°
2026-04-24 10:57 -33.94388 151.17536 27 ft 29 kts 167°
2026-04-24 10:57 -33.94514 151.17589 27 ft 22 kts 133°
2026-04-24 10:57 -33.94527 151.17707 27 ft 0 kts 79°
2026-04-24 10:58 -33.94519 151.17755 26 ft 13 kts 78°
2026-04-24 10:58 -33.94469 151.17779 27 ft 7 kts 341°
2026-04-24 10:58 -33.94379 151.17750 32 ft 20 kts 345°
2026-04-24 10:59 -33.94207 151.17693 24 ft 30 kts 344°
2026-04-24 10:59 -33.94022 151.17644 24 ft 22 kts 348°
2026-04-24 10:59 -33.93935 151.17623 23 ft 17 kts 348°
2026-04-24 10:59 -33.93789 151.17582 21 ft 27 kts 349°
2026-04-24 11:00 -33.93574 151.17536 21 ft 35 kts 352°
2026-04-24 11:00 -33.93326 151.17494 25 ft 37 kts 346°
2026-04-24 11:00 -33.93167 151.17452 25 ft 12 kts 348°
2026-04-24 11:00 -33.93154 151.17448 25 ft 0 kts 347°
2026-04-24 11:01 -33.93144 151.17445 25 ft 0 kts 347°
2026-04-24 11:06 -33.93107 151.17449 27 ft 11 kts 26°
2026-04-24 11:06 -33.93040 151.17535 33 ft 19 kts 20°
2026-04-24 11:06 -33.93011 151.17609 33 ft 14 kts 106°
2026-04-24 11:06 -33.93049 151.17738 34 ft 0 kts 110°
2026-04-24 11:07 -33.93083 151.17920 34 ft 15 kts 102°
2026-04-24 11:07 -33.93104 151.18038 34 ft 8 kts 140°